Imperial Beach, CA

12:40 PM PDT on September 30, 2016 (GMT -0700)
Imperial Beach Naval Outlying Field

Weather History for KNRS - October, 2013

Change the Weather History Date:

Monday, October 21, 2013

  Actual Average Record
Temperature  
Mean Temperature 58 °F -  
Max Temperature 68 °F 67 °F 88 °F (1999)
Min Temperature 51 °F 56 °F 46 °F (2008)
Degree Days  
Heating Degree Days 6    
Growing Degree Days 8 (Base 50)    
Moisture  
Dew Point 55 °F    
Average Humidity 85    
Maximum Humidity 100    
Minimum Humidity 65    
Precipitation  
Precipitation 0.00 in - - ()
Sea Level Pressure  
Sea Level Pressure 29.96 in    
Wind  
Wind Speed 4 mph (NW)    
Max Wind Speed 12 mph    
Max Gust Speed -    
Visibility 7 miles    
Events      
Averages and records for this station are not official NWS values.
T = Trace of Precipitation, MM = Missing Value Source: NWS Daily Summary

Daily Weather History Graph

Daily Weather History Graph

Search for Another Location

Airport or City:

Trip Planner

Search our weather history database for the weather conditions in past years. The results will help you decide how hot, cold, wet, or windy it might be!

Date:

Astronomy

Oct. 21, 2013 Rise Set
Actual Time 6:57 AM PDT 6:08 PM PDT
Civil Twilight 6:32 AM PDT 6:33 PM PDT
Nautical Twilight 6:03 AM PDT 7:01 PM PDT
Astronomical Twilight 5:34 AM PDT 7:30 PM PDT
Moon 8:12 PM PDT (10/21) 9:28 AM PDT (10/21)
Length of Visible Light 12h 01m
Length of Day
11h 11m
Waning Gibbous, 92% of the Moon is Illuminated
Oct 21
Waning Gibbous
Oct 26
Last Quarter
Nov 3
New
Nov 9
First Quarter
Nov 17
Full

Hourly Weather History & Observations

Time (PDT) Temp. Dew Point Humidity Pressure Visibility Wind Dir Wind Speed Gust Speed Precip Events Conditions
12:46 AM 51.8 °F 50.0 °F 94% 29.95 in 6.0 mi ENE 3.5 mph - N/A   Scattered Clouds
12:56 AM 52.0 °F 51.1 °F 97% 29.95 in 6.0 mi ENE 3.5 mph - N/A   Scattered Clouds
1:11 AM 51.8 °F 51.8 °F 100% 29.95 in 6.0 mi East 3.5 mph - N/A   Mostly Cloudy
1:56 AM 55.9 °F 54.0 °F 93% 29.95 in 5.0 mi ENE 3.5 mph - N/A   Overcast
2:44 AM 59.0 °F 57.2 °F 94% 29.95 in 4.0 mi NE 3.5 mph - N/A   Overcast
2:56 AM 59.0 °F 57.0 °F 93% 29.95 in 3.0 mi Calm Calm - N/A   Overcast
3:56 AM 57.9 °F 57.0 °F 97% 29.94 in 4.0 mi Calm Calm - N/A   Overcast
4:13 AM 57.2 °F 55.4 °F 94% 29.95 in 4.0 mi Calm Calm - N/A   Overcast
4:56 AM 57.9 °F 55.9 °F 93% 29.95 in 5.0 mi East 3.5 mph - N/A   Overcast
5:56 AM 57.0 °F 55.0 °F 93% 29.95 in 4.0 mi Calm Calm - N/A   Overcast
6:56 AM 55.0 °F 53.1 °F 93% 29.96 in 3.0 mi East 4.6 mph - N/A   Mostly Cloudy
7:56 AM 55.0 °F 53.1 °F 93% 29.97 in 2.0 mi Calm Calm - N/A   Mostly Cloudy
8:47 AM 59.0 °F 53.6 °F 82% 29.99 in 3.0 mi Calm Calm - N/A   Scattered Clouds
8:56 AM 60.1 °F 54.0 °F 80% 29.99 in 3.0 mi Variable 3.5 mph - N/A   Scattered Clouds
9:56 AM 63.0 °F 54.0 °F 72% 29.99 in 6.0 mi NNW 4.6 mph - N/A   Haze
10:56 AM 64.9 °F 53.1 °F 65% 29.98 in 8.0 mi WNW 6.9 mph - N/A   Partly Cloudy
11:56 AM 64.9 °F 55.0 °F 70% 29.97 in 8.0 mi WNW 8.1 mph - N/A   Partly Cloudy
12:56 PM 66.9 °F 55.9 °F 68% 29.96 in 9.0 mi WNW 10.4 mph - N/A   Partly Cloudy
1:56 PM 66.0 °F 57.0 °F 73% 29.94 in 9.0 mi West 11.5 mph - N/A   Partly Cloudy
2:56 PM 66.9 °F 57.9 °F 73% 29.93 in 10.0 mi West 11.5 mph - N/A   Partly Cloudy
3:56 PM 66.9 °F 57.9 °F 73% 29.93 in 10.0 mi WNW 11.5 mph - N/A   Partly Cloudy
4:56 PM 64.9 °F 57.9 °F 78% 29.93 in 10.0 mi West 9.2 mph - N/A   Partly Cloudy
5:56 PM 63.0 °F 57.0 °F 81% 29.94 in 10.0 mi West 6.9 mph - N/A   Partly Cloudy
6:56 PM 61.0 °F 55.9 °F 83% 29.95 in 10.0 mi West 4.6 mph - N/A   Partly Cloudy
7:56 PM 64.0 °F 57.9 °F 80% 29.96 in 10.0 mi WNW 4.6 mph - N/A   Partly Cloudy
8:56 PM 55.0 °F 52.0 °F 89% 29.97 in 9.0 mi Calm Calm - N/A   Partly Cloudy
9:56 PM 52.0 °F 51.1 °F 97% 29.98 in 9.0 mi Calm Calm - N/A   Mostly Cloudy
10:56 PM 62.1 °F 57.9 °F 86% 29.99 in 9.0 mi Calm Calm - N/A   Mostly Cloudy
11:56 PM 63.0 °F 57.9 °F 84% 29.99 in 8.0 mi NW 5.8 mph - N/A   Overcast